星链-36697(STARLINK-36697)

导读

STARLINK-36697是美国SpaceX星链(Starlink)星座的一员,于2026年2月7日发射。星链项目旨在构建全球卫星互联网星座,为全球偏远地区、海洋航空等场景提供高速低延迟宽带网络服务。该卫星加入后将进一步拓展星链星座的覆盖范围与服务能力,增强星座整体运营稳定性,继续推进SpaceX全球卫星互联网组网进程。

Basic Information
目录编号:
67698
目录名称:
STARLINK-36697
国际标识:
2026-025F
轨道中心:
EARTH
卫星名称:
星链-36697
卫星全名:
星链-36697(STARLINK-36697)
卫星状态:
在轨 (已飞行210 天)
发射日期:
2026-02-07 UTC
国别 :
美国 (US)
星等 :
--
Orbit Information
数据来源 国际轨道数据
星历时间: 2026-09-05T14:29:19+0800
6小时前
查看轨道信息
半长轴: 6843.686km
偏心率: 0.0000729
轨道倾角: 97.285°
近地点辐角 87.314°
升交点赤经 358.416°
平近点角 272.818°
近地点: 465.05km
远地点: 466.048km
周期: 93.906分钟
每日圈数: 15.334432
Detailed Information
固有亮度:
5
最大亮度:
2.5
卫星平台:
Starlink V1.0
覆盖范围:
全球
运营商:
太空探索技术公司
运营商所在国:
美国
制造商(研发单位):
太空探索技术公司
制造商所在国:
美国
使用方式:
暂无
Satellite Introduction
Starlink 计划是 SpaceX 推出的全球卫星互联网项目,通过发射低轨道卫星,为全球尤其是偏远地区提供高速、低延迟的互联网服务。自 2019 年起,Starlink 已部署数千颗卫星,旨在缩小全球数字鸿沟,推动互联网普及。该项目还为军事、航空等行业提供通信支持,带来广泛经济效益。
2D Orbit Map
3D Orbit Map
Orbit Altitude Analysis Chart
Orbit Inclination Analysis Chart
Orbit Comprehensive Analysis Chart
View Comprehensive Chart
Conjunction Data List
Event ID Objects TCA Miss Dist (km) Collision Risk Probability Collision Risk Index (CRI) Action
CDM_260905-222206-411806-769821
2026-09-05T
22:22:54+0000
2.454 km
极远距离
1.543859E-6 低风险 0.39
CDM_260907-040106-019806-769821
2026-09-07T
04:01:15+0000
2.974 km
极远距离
1.343643E-6 低风险 0.38
CDM_260906-133405-237006-769821
2026-09-06T
13:34:41+0000
2.886 km
极远距离
1.201491E-6 低风险 0.37